Weather History for Wooster, OH

Change the Weather History Date:

Saturday, December 29, 2012

  Actual Average Record
Temperature  
Mean Temperature 28 °F -  
Max Temperature 32 °F 32 °F 57 °F (1996)
Min Temperature 24 °F 19 °F 12 °F (2000)
Degree Days  
Heating Degree Days 37    
Moisture  
Dew Point 25 °F    
Average Humidity 90    
Maximum Humidity 93    
Minimum Humidity 80    
Precipitation  
Precipitation 0.06 in - - ()
Sea Level Pressure  
Sea Level Pressure 29.81 in    
Wind  
Wind Speed 7 mph (NNW)    
Max Wind Speed 17 mph    
Max Gust Speed -    
Visibility 3 miles    
Events Snow    
Averages and records for this station are not official NWS values.
T = Trace of Precipitation, MM = Missing Value Source: NWS Daily Summary

Daily Weather History Graph

Daily Weather History Graph

Search for Another Location

Airport:

Trip Planner

Search our weather history database for the weather conditions in past years. The results will help you decide how hot, cold, wet, or windy it might be!

Date:

Astronomy

Dec. 29, 2012 Rise Set
Actual Time 7:51 AM EST 5:08 PM EST
Civil Twilight 7:20 AM EST 5:39 PM EST
Nautical Twilight 6:46 AM EST 6:13 PM EST
Astronomical Twilight 6:12 AM EST 6:47 PM EST
Moon 6:40 PM EST (12/29) 8:23 AM EST (12/29)
Length of Visible Light 10h 18m
Length of Day
9h 16m
Full, 98% of the Moon is Illuminated
Dec 29
Full
Jan 4
Last Quarter
Jan 11
New
Jan 18
First Quarter
Jan 26
Full

Hourly Weather History & Observations

Time (EST) Temp. Windchill Dew Point Humidity Pressure Visibility Wind Dir Wind Speed Gust Speed Precip Events Conditions
12:56 AM 26.1 °F 21.9 °F 21.0 °F 81% 29.89 in 6.0 mi East 3.5 mph - N/A   Haze
1:56 AM 26.1 °F - 21.0 °F 81% 29.90 in 7.0 mi Calm Calm - N/A   Overcast
2:56 AM 26.1 °F 19.4 °F 21.0 °F 81% 29.86 in 6.0 mi ENE 5.8 mph - N/A   Haze
3:39 AM 26.6 °F 20.0 °F 21.2 °F 80% 29.79 in 1.8 mi East 5.8 mph - 0.00 in Snow Light Snow
3:56 AM 25.0 °F 18.1 °F 23.0 °F 92% 29.82 in 2.5 mi East 5.8 mph - 0.00 in Snow Light Snow
4:23 AM 24.8 °F 16.1 °F 23.0 °F 93% 29.75 in 1.5 mi NNE 8.1 mph - 0.00 in Snow Light Snow
4:43 AM 24.8 °F 16.1 °F 23.0 °F 93% 29.72 in 1.5 mi NNE 8.1 mph - 0.00 in Snow Light Snow
4:53 AM 24.8 °F 16.9 °F 23.0 °F 93% 29.71 in 1.5 mi NNE 6.9 mph - 0.00 in Snow Light Snow
4:56 AM 25.0 °F 17.1 °F 23.0 °F 92% 29.76 in 1.5 mi NNE 6.9 mph - 0.00 in Snow Light Snow
5:28 AM 26.6 °F 17.5 °F 24.8 °F 93% 29.70 in 1.0 mi North 9.2 mph - 0.00 in Snow Light Snow
5:37 AM 26.6 °F 19.1 °F 24.8 °F 93% 29.69 in 1.2 mi NNE 6.9 mph - 0.00 in Snow Light Snow
5:46 AM 26.6 °F 19.1 °F 24.8 °F 93% 29.69 in 1.0 mi NNE 6.9 mph - 0.01 in Snow Light Snow
5:54 AM 26.6 °F 19.1 °F 24.8 °F 93% 29.70 in 0.8 mi NNE 6.9 mph - 0.01 in Snow Light Snow
5:56 AM 26.1 °F 18.4 °F 24.1 °F 92% 29.75 in 0.8 mi NNE 6.9 mph - 0.01 in Snow Light Snow
6:36 AM 24.8 °F 19.1 °F 23.0 °F 93% 29.70 in 1.5 mi NNE 4.6 mph - 0.02 in Snow Light Snow
6:56 AM 25.0 °F 18.1 °F 23.0 °F 92% 29.76 in 1.8 mi North 5.8 mph - 0.02 in Snow Light Snow
7:15 AM 24.8 °F 16.9 °F 23.0 °F 93% 29.71 in 1.8 mi NNE 6.9 mph - 0.00 in Snow Light Snow
7:33 AM 24.8 °F 19.1 °F 23.0 °F 93% 29.71 in 2.5 mi North 4.6 mph - 0.00 in Snow Light Snow
7:48 AM 24.8 °F 19.1 °F 23.0 °F 93% 29.71 in 1.5 mi North 4.6 mph - 0.00 in Snow Light Snow
8:04 AM 24.8 °F 19.1 °F 23.0 °F 93% 29.70 in 0.8 mi NNE 4.6 mph - 0.00 in Snow Light Snow
8:56 AM 25.0 °F 17.1 °F 23.0 °F 92% 29.76 in 0.8 mi North 6.9 mph - 0.02 in Snow Light Snow
9:37 AM 26.6 °F 19.1 °F 24.8 °F 93% 29.71 in 1.0 mi North 6.9 mph - 0.00 in Snow Light Snow
9:44 AM 26.6 °F 19.1 °F 24.8 °F 93% 29.71 in 1.2 mi North 6.9 mph - 0.00 in Snow Light Snow
9:56 AM 26.1 °F 19.4 °F 24.1 °F 92% 29.76 in 1.5 mi North 5.8 mph - 0.00 in Snow Light Snow
10:10 AM 24.8 °F 16.9 °F 23.0 °F 93% 29.72 in 2.5 mi NNW 6.9 mph - 0.00 in Snow Light Snow
10:21 AM 26.6 °F 19.1 °F 23.0 °F 86% 29.72 in 2.5 mi NNW 6.9 mph - 0.00 in Snow Light Snow
10:32 AM 26.6 °F 19.1 °F 24.8 °F 93% 29.73 in 4.0 mi NNW 6.9 mph - 0.00 in Snow Light Snow
10:56 AM 28.0 °F 21.7 °F 25.0 °F 88% 29.77 in 5.0 mi NNW 5.8 mph - 0.00 in   Overcast
11:56 AM 28.9 °F 21.1 °F 25.0 °F 85% 29.76 in 4.0 mi NNW 8.1 mph - N/A   Overcast
12:19 PM 30.2 °F 21.9 °F 26.6 °F 86% 29.73 in 3.0 mi NW 9.2 mph - 0.00 in Snow Light Snow
12:31 PM 30.2 °F 21.9 °F 26.6 °F 86% 29.73 in 5.0 mi NNW 9.2 mph - 0.00 in   Overcast
12:56 PM 30.0 °F 21.1 °F 27.0 °F 88% 29.77 in 3.0 mi NW 10.4 mph - 0.00 in Snow Light Snow
1:04 PM 30.2 °F 21.9 °F 26.6 °F 86% 29.73 in 1.8 mi NW 9.2 mph - 0.00 in Snow Light Snow
1:17 PM 30.2 °F 21.9 °F 28.4 °F 93% 29.73 in 1.2 mi WNW 9.2 mph - 0.00 in Snow Light Snow
1:26 PM 30.2 °F 23.4 °F 28.4 °F 93% 29.73 in 1.8 mi WNW 6.9 mph - 0.00 in Snow Light Snow
1:30 PM 30.2 °F 23.4 °F 28.4 °F 93% 29.73 in 3.0 mi WNW 6.9 mph - 0.00 in   Overcast
1:56 PM 32.0 °F 23.6 °F 28.0 °F 85% 29.77 in 6.0 mi NW 10.4 mph - 0.00 in   Overcast
2:19 PM 32.0 °F 24.8 °F 28.4 °F 87% 29.74 in 1.8 mi NW 8.1 mph - 0.00 in Snow Light Snow
2:34 PM 30.2 °F 19.3 °F 28.4 °F 93% 29.75 in 1.5 mi NNW 15.0 mph - 0.00 in Snow Light Snow
2:38 PM 30.2 °F 20.2 °F 28.4 °F 93% 29.75 in 3.0 mi NNW 12.7 mph - 0.00 in Snow Light Snow
2:56 PM 30.9 °F 19.4 °F 28.0 °F 89% 29.80 in 6.0 mi NNW 17.3 mph - 0.00 in   Overcast
3:21 PM 30.2 °F 19.8 °F 26.6 °F 86% 29.77 in 7.0 mi NNW 13.8 mph - 0.00 in   Overcast
3:47 PM 30.2 °F 21.3 °F 26.6 °F 86% 29.79 in 6.0 mi NNW 10.4 mph - 0.01 in   Overcast
3:56 PM 30.9 °F 21.2 °F 28.0 °F 89% 29.84 in 5.0 mi NW 12.7 mph - 0.01 in Snow Light Snow
4:06 PM 30.2 °F 21.3 °F 28.4 °F 93% 29.80 in 4.0 mi NNW 10.4 mph - 0.00 in Snow Light Snow
4:56 PM 30.0 °F 21.7 °F 27.0 °F 88% 29.87 in 4.0 mi NNW 9.2 mph - 0.00 in Snow Light Snow
5:04 PM 30.2 °F 21.3 °F 26.6 °F 86% 29.83 in 4.0 mi NW 10.4 mph - 0.00 in Snow Light Snow
5:14 PM 30.2 °F 20.8 °F 26.6 °F 86% 29.84 in 4.0 mi NW 11.5 mph - 0.00 in Snow Light Snow
5:21 PM 30.2 °F 21.3 °F 26.6 °F 86% 29.84 in 4.0 mi NW 10.4 mph - 0.00 in Snow Light Snow
5:56 PM 28.9 °F 21.1 °F 26.1 °F 89% 29.91 in 4.0 mi NW 8.1 mph - 0.00 in Snow Light Snow
6:34 PM 28.4 °F 19.1 °F 26.6 °F 93% 29.88 in 3.0 mi NW 10.4 mph - 0.00 in Snow Light Snow
6:56 PM 28.0 °F 20.0 °F 26.1 °F 92% 29.94 in 3.0 mi WNW 8.1 mph - 0.00 in Snow Light Snow
7:05 PM 28.4 °F 21.2 °F 26.6 °F 93% 29.89 in 2.0 mi WNW 6.9 mph - 0.00 in Snow Light Snow
7:26 PM 28.4 °F 20.4 °F 26.6 °F 93% 29.90 in 2.5 mi WNW 8.1 mph - 0.00 in Snow Light Snow
7:33 PM 28.4 °F 20.4 °F 26.6 °F 93% 29.90 in 4.0 mi WNW 8.1 mph - 0.00 in Snow Light Snow
7:56 PM 28.0 °F 19.3 °F 25.0 °F 88% 29.95 in 5.0 mi WNW 9.2 mph - 0.00 in Snow Light Snow
8:28 PM 28.4 °F 19.7 °F 24.8 °F 86% 29.91 in 2.5 mi WNW 9.2 mph - 0.00 in Snow Light Snow
8:43 PM 28.4 °F 19.1 °F 24.8 °F 86% 29.92 in 3.0 mi WNW 10.4 mph - 0.00 in Snow Light Snow
8:52 PM 28.4 °F 18.0 °F 24.8 °F 86% 29.92 in 2.5 mi WNW 12.7 mph - 0.00 in Snow Light Snow
8:56 PM 28.0 °F 17.5 °F 24.1 °F 85% 29.97 in 2.5 mi WNW 12.7 mph - 0.00 in Snow Light Snow
9:20 PM 26.6 °F 17.5 °F 24.8 °F 93% 29.93 in 2.5 mi WNW 9.2 mph - 0.00 in Snow Light Snow
9:31 PM 26.6 °F 18.2 °F 24.8 °F 93% 29.94 in 3.0 mi WNW 8.1 mph - 0.00 in Snow Light Snow
9:36 PM 26.6 °F 18.2 °F 24.8 °F 93% 29.94 in 3.0 mi WNW 8.1 mph - 0.00 in Snow Light Snow
9:48 PM 26.6 °F 17.5 °F 24.8 °F 93% 29.94 in 2.5 mi WNW 9.2 mph - 0.00 in Snow Light Snow
9:56 PM 27.0 °F 17.3 °F 24.1 °F 89% 29.99 in 2.5 mi WNW 10.4 mph - 0.00 in Snow Light Snow
10:13 PM 26.6 °F 16.2 °F 23.0 °F 86% 29.96 in 3.0 mi WNW 11.5 mph - 0.00 in Snow Light Snow
10:56 PM 26.1 °F 14.5 °F 23.0 °F 88% 30.02 in 4.0 mi WNW 13.8 mph - 0.00 in Snow Light Snow
11:56 PM 26.1 °F 15.0 °F 23.0 °F 88% 30.04 in 4.0 mi WNW 12.7 mph - 0.00 in Snow Light Snow